Location: Gülübeli Geçidi
(36.8411°N, 29.7411°E)
Time: 07:49:12
(UTC+00:00)

CZ-4B R/B - Pass Details

Date: 15 May 2026
Orbit: 442 x 558 km, 97.8° (Epoch: 6 June)

Event Time Altitude Azimuth Distance (km) Brightness Sun altitude
Exits shadow 19:15:22 34° 32° (NNE) 760 3.6 -22.3°
Drops below altitude 10° 19:17:44 10° 2° (N) 1,604 5.8 -22.6°
Sets 19:19:51 0° 355° (N) 2,498 7.0 -22.9°
